Back to catalog

COSMOS 970 DEB

AliveLEO
NORAD 64989·DEBRIS·🇷🇺 Russia

Launched Dec 21, 1977 from Baikonur Cosmodrome

Loading…

Next Passes (next 24 hours)

TLE

StaleSource: Space-Track

Epoch: Aug 20, 2026, 06:53 UTC

1 64989U 77121DA  26232.28686639  .00000285  00000-0  36838-3 0  9993
2 64989  65.5935 171.1980 0104452 255.5931 184.2424 13.75270716593971

Track COSMOS 970 DEB in real time with AllMySat

Download on the App Store